Terug naar catalogus

SL-14 DEB

ActiefPO
NORAD 45283·DEBRIS·🇷🇺 Russia

Gelanceerd Aug 15, 1991 vanaf Plesetsk Cosmodrome

Loading…

Volgende Passages (komende 24 uur)

TLE

VersSource: Space-Track

Epoch: Sep 14, 2026, 13:54 UTC

1 45283U 91056V   26257.57983680  .00003073  00000-0  11659-1 0  9997
2 45283  82.5230 198.3910 0261175  83.9820 279.0976 12.79987830305830

Volg SL-14 DEB in realtime met AllMySat

Download on the App Store